Weather History for Greensboro, GA

Change the Weather History Date:

Sunday, January 12, 2014

  Actual Average (KDBN) Record (KDBN)
Temperature  
Mean Temperature 48 °F -  
Max Temperature 59 °F 54 °F 83 °F (1949)
Min Temperature 37 °F 30 °F 12 °F (1982)
Degree Days  
Heating Degree Days 17    
Moisture  
Dew Point 36 °F    
Average Humidity 66    
Maximum Humidity 93    
Minimum Humidity 39    
Precipitation  
Precipitation 0.00 in - - ()
Sea Level Pressure  
Sea Level Pressure 30.08 in    
Wind  
Wind Speed 4 mph (WSW)    
Max Wind Speed 9 mph    
Max Gust Speed -    
Visibility 10 miles    
Events      
Averages and records for this station are not official NWS values.
T = Trace of Precipitation, MM = Missing Value Source: NWS Daily Summary

Daily Weather History Graph

Daily Weather History Graph

Search for Another Location

Airport:

Trip Planner

Search our weather history database for the weather conditions in past years. The results will help you decide how hot, cold, wet, or windy it might be!

Date:

Astronomy

Jan. 12, 2014 Rise Set
Actual Time 7:37 AM EST 5:44 PM EST
Civil Twilight 7:10 AM EST 6:11 PM EST
Nautical Twilight 6:39 AM EST 6:42 PM EST
Astronomical Twilight 6:09 AM EST 7:12 PM EST
Moon 3:10 PM EST (1/12) 4:36 AM EST (1/12)
Length of Visible Light 11h 01m
Length of Day
10h 07m
Waxing Gibbous, 89% of the Moon is Illuminated
Jan 12
Waxing Gibbous
Jan 15
Full
Jan 24
Last Quarter
Jan 30
New
Feb 6
First Quarter

Hourly Weather History & Observations

Time (EST) Temp. Windchill Dew Point Humidity Pressure Visibility Wind Dir Wind Speed Gust Speed Precip Events Conditions
12:15 AM 46.4 °F 43.5 °F 35.6 °F 66% 29.88 in 10.0 mi West 5.8 mph - N/A   Clear
12:35 AM 46.4 °F 42.9 °F 35.6 °F 66% 29.89 in 10.0 mi West 6.9 mph - N/A   Clear
12:55 AM 46.4 °F 43.5 °F 37.4 °F 71% 29.89 in 10.0 mi West 5.8 mph - N/A   Clear
1:15 AM 46.4 °F 44.3 °F 37.4 °F 71% 29.90 in 10.0 mi West 4.6 mph - N/A   Clear
1:35 AM 46.4 °F 43.5 °F 37.4 °F 71% 29.90 in 10.0 mi West 5.8 mph - N/A   Clear
1:55 AM 44.6 °F 41.4 °F 35.6 °F 71% 29.92 in 10.0 mi West 5.8 mph - N/A   Clear
2:15 AM 44.6 °F 42.2 °F 35.6 °F 71% 29.93 in 10.0 mi West 4.6 mph - N/A   Clear
2:35 AM 44.6 °F 43.1 °F 35.6 °F 71% 29.94 in 10.0 mi West 3.5 mph - N/A   Clear
2:55 AM 44.6 °F 41.4 °F 35.6 °F 71% 29.95 in 10.0 mi West 5.8 mph - N/A   Clear
3:15 AM 42.8 °F 39.3 °F 35.6 °F 76% 29.95 in 10.0 mi West 5.8 mph - N/A   Clear
3:35 AM 42.8 °F 41.1 °F 35.6 °F 76% 29.96 in 10.0 mi West 3.5 mph - N/A   Clear
3:55 AM 42.8 °F 40.1 °F 35.6 °F 76% 29.96 in 10.0 mi West 4.6 mph - N/A   Clear
4:15 AM 42.8 °F 39.3 °F 35.6 °F 76% 29.97 in 10.0 mi West 5.8 mph - N/A   Clear
4:35 AM 42.8 °F 39.3 °F 35.6 °F 76% 29.98 in 10.0 mi West 5.8 mph - N/A   Clear
4:55 AM 41.0 °F 38.0 °F 35.6 °F 81% 29.98 in 10.0 mi West 4.6 mph - N/A   Clear
5:15 AM 41.0 °F 38.0 °F 35.6 °F 81% 29.99 in 10.0 mi West 4.6 mph - N/A   Clear
5:35 AM 41.0 °F 38.0 °F 35.6 °F 81% 30.00 in 10.0 mi West 4.6 mph - N/A   Clear
5:55 AM 41.0 °F - 35.6 °F 81% 30.00 in 10.0 mi Calm Calm - N/A   Clear
6:15 AM 39.2 °F 35.9 °F 35.6 °F 87% 30.00 in 10.0 mi West 4.6 mph - N/A   Clear
6:35 AM 39.2 °F 37.0 °F 35.6 °F 87% 30.01 in 10.0 mi WSW 3.5 mph - N/A   Clear
6:55 AM 39.2 °F 37.0 °F 35.6 °F 87% 30.02 in 10.0 mi WSW 3.5 mph - N/A   Clear
7:15 AM 39.2 °F 35.9 °F 35.6 °F 87% 30.04 in 10.0 mi West 4.6 mph - N/A   Clear
7:35 AM 37.4 °F 33.8 °F 35.6 °F 93% 30.06 in 10.0 mi WSW 4.6 mph - N/A   Clear
7:55 AM 37.4 °F 34.9 °F 35.6 °F 93% 30.07 in 10.0 mi WSW 3.5 mph - N/A   Clear
8:15 AM 39.2 °F 35.9 °F 35.6 °F 87% 30.08 in 10.0 mi WSW 4.6 mph - N/A   Clear
8:35 AM 41.0 °F 39.0 °F 35.6 °F 81% 30.11 in 10.0 mi WSW 3.5 mph - N/A   Clear
8:55 AM 42.8 °F 41.1 °F 35.6 °F 76% 30.12 in 10.0 mi WSW 3.5 mph - N/A   Clear
9:15 AM 42.8 °F 40.1 °F 37.4 °F 81% 30.13 in 10.0 mi WSW 4.6 mph - N/A   Clear
9:35 AM 44.6 °F 42.2 °F 37.4 °F 76% 30.14 in 10.0 mi West 4.6 mph - N/A   Clear
9:55 AM 46.4 °F 44.3 °F 37.4 °F 71% 30.15 in 10.0 mi WSW 4.6 mph - N/A   Clear
10:15 AM 46.4 °F 45.2 °F 39.2 °F 76% 30.16 in 10.0 mi WSW 3.5 mph - N/A   Clear
10:35 AM 48.2 °F - 37.4 °F 66% 30.16 in 10.0 mi WSW 3.5 mph - N/A   Clear
10:55 AM 50.0 °F - 37.4 °F 62% 30.16 in 10.0 mi Calm Calm - N/A   Clear
11:15 AM 51.8 °F - 37.4 °F 58% 30.16 in 10.0 mi WSW 4.6 mph - N/A   Clear
11:35 AM 51.8 °F - 37.4 °F 58% 30.16 in 10.0 mi Calm Calm - N/A   Clear
11:55 AM 53.6 °F - 37.4 °F 54% 30.15 in 10.0 mi SW 5.8 mph - N/A   Clear
12:15 PM 53.6 °F - 37.4 °F 54% 30.14 in 10.0 mi Calm Calm - N/A   Clear
12:35 PM 53.6 °F - 35.6 °F 51% 30.13 in 10.0 mi Calm Calm - N/A   Clear
12:55 PM 55.4 °F - 37.4 °F 51% 30.13 in 10.0 mi Calm Calm - N/A   Clear
1:15 PM 55.4 °F - 35.6 °F 47% 30.12 in 10.0 mi WSW 8.1 mph - N/A   Clear
1:35 PM 55.4 °F - 35.6 °F 47% 30.11 in 10.0 mi West 4.6 mph - N/A   Clear
1:55 PM 57.2 °F - 35.6 °F 44% 30.11 in 10.0 mi WSW 9.2 mph - N/A   Clear
2:15 PM 57.2 °F - 35.6 °F 44% 30.11 in 10.0 mi West 8.1 mph - N/A   Clear
2:35 PM 59.0 °F - 35.6 °F 42% 30.11 in 10.0 mi SW 4.6 mph - N/A   Clear
2:55 PM 57.2 °F - 35.6 °F 44% 30.10 in 10.0 mi SW 8.1 mph - N/A   Clear
3:15 PM 59.0 °F - 35.6 °F 42% 30.10 in 10.0 mi SW 4.6 mph - N/A   Clear
3:35 PM 59.0 °F - 33.8 °F 39% 30.10 in 10.0 mi SW 5.8 mph - N/A   Clear
3:55 PM 59.0 °F - 35.6 °F 42% 30.10 in 10.0 mi SW 3.5 mph - N/A   Clear
4:15 PM 59.0 °F - 33.8 °F 39% 30.10 in 10.0 mi West 4.6 mph - N/A   Clear
4:35 PM 59.0 °F - 35.6 °F 42% 30.10 in 10.0 mi West 3.5 mph - N/A   Clear
4:55 PM 57.2 °F - 33.8 °F 41% 30.11 in 10.0 mi WSW 4.6 mph - N/A   Clear
5:15 PM 55.4 °F - 35.6 °F 47% 30.11 in 10.0 mi Calm Calm - N/A   Clear
5:35 PM 53.6 °F - 35.6 °F 51% 30.12 in 10.0 mi Calm Calm - N/A   Clear
5:55 PM 53.6 °F - 35.6 °F 51% 30.12 in 10.0 mi Calm Calm - N/A   Clear
6:15 PM 51.8 °F - 35.6 °F 54% 30.13 in 10.0 mi Calm Calm - N/A   Clear
6:35 PM 51.8 °F - 35.6 °F 54% 30.13 in 10.0 mi Calm Calm - N/A   Clear
6:55 PM 48.2 °F - 35.6 °F 62% 30.13 in 10.0 mi Calm Calm - N/A   Clear
7:15 PM 48.2 °F - 35.6 °F 62% 30.14 in 10.0 mi Calm Calm - N/A   Clear
7:35 PM 48.2 °F - 35.6 °F 62% 30.15 in 10.0 mi Calm Calm - N/A   Clear
7:55 PM 46.4 °F - 35.6 °F 66% 30.15 in 10.0 mi Calm Calm - N/A   Clear
8:15 PM 44.6 °F - 35.6 °F 71% 30.15 in 10.0 mi Calm Calm - N/A   Clear
8:35 PM 42.8 °F - 35.6 °F 76% 30.15 in 10.0 mi Calm Calm - N/A   Clear
8:55 PM 42.8 °F - 35.6 °F 76% 30.15 in 10.0 mi Calm Calm - N/A   Clear
9:15 PM 44.6 °F - 35.6 °F 71% 30.15 in 10.0 mi Calm Calm - N/A   Clear
9:35 PM 42.8 °F 41.1 °F 35.6 °F 76% 30.15 in 10.0 mi SE 3.5 mph - N/A   Clear
9:55 PM 44.6 °F 43.1 °F 35.6 °F 71% 30.15 in 10.0 mi SE 3.5 mph - N/A   Clear
10:15 PM 42.8 °F 41.1 °F 35.6 °F 76% 30.15 in 10.0 mi SE 3.5 mph - N/A   Clear
10:35 PM 42.8 °F - 35.6 °F 76% 30.15 in 10.0 mi Calm Calm - N/A   Clear
10:55 PM 42.8 °F 41.1 °F 33.8 °F 70% 30.15 in 10.0 mi SE 3.5 mph - N/A   Clear
11:15 PM 42.8 °F 41.1 °F 33.8 °F 70% 30.14 in 10.0 mi SE 3.5 mph - N/A   Clear
11:35 PM 42.8 °F - 33.8 °F 70% 30.15 in 10.0 mi Calm Calm - N/A   Clear
11:55 PM 42.8 °F - 33.8 °F 70% 30.14 in 10.0 mi Calm Calm - N/A   Clear